Albany, GA

6:14 PM EDT on June 27, 2017 (GMT -0400)
Southwest Georgia Regional

Weather History for KABY - April, 2014

Change the Weather History Date:

Sunday, April 27, 2014

  Actual Average Record
Temperature  
Mean Temperature 72 °F 69 °F  
Max Temperature 85 °F 82 °F 93 °F (2011)
Min Temperature 59 °F 56 °F 40 °F (1983)
Degree Days  
Heating Degree Days 0 1  
Month to date heating degree days 70 64  
Since 1 July heating degree days 1934 1833  
Cooling Degree Days 7 5  
Month to date cooling degree days 73 86  
Year to date cooling degree days 80 124  
Growing Degree Days 22 (Base 50)    
Moisture  
Dew Point 63 °F    
Average Humidity 74    
Maximum Humidity 100    
Minimum Humidity 48    
Precipitation  
Precipitation T in 0.09 in 0.58 in (2016)
Month to date precipitation 3.42  
Year to date precipitation 17.45  
Sea Level Pressure  
Sea Level Pressure 30.00 in    
Wind  
Wind Speed 4 mph (South)    
Max Wind Speed 15 mph    
Max Gust Speed 18 mph    
Visibility 6 miles    
Events Fog    
T = Trace of Precipitation, MM = Missing Value Source: NWS Daily Summary

Daily Weather History Graph

Daily Weather History Graph

Search for Another Location

Airport or City:

Trip Planner

Search our weather history database for the weather conditions in past years. The results will help you decide how hot, cold, wet, or windy it might be!

Date:

Astronomy

Apr. 27, 2014 Rise Set
Actual Time 6:55 AM EDT 8:13 PM EDT
Civil Twilight 6:29 AM EDT 8:39 PM EDT
Nautical Twilight 5:59 AM EDT 9:09 PM EDT
Astronomical Twilight 5:27 AM EDT 9:41 PM EDT
Moon 5:47 AM EDT 6:51 PM EDT
Length of Visible Light 14h 09m
Length of Day
13h 18m
Waning Crescent, 3% of the Moon is Illuminated
Apr 27
Waning Crescent
Apr 29
New
May 6
First Quarter
May 14
Full
May 21
Last Quarter

Hourly Weather History & Observations

Time (EDT) Temp. Heat Index Dew Point Humidity Pressure Visibility Wind Dir Wind Speed Gust Speed Precip Events Conditions
12:53 AM 68.0 °F - 60.1 °F 76% 30.00 in 10.0 mi Calm Calm - N/A   Clear
1:53 AM 66.9 °F - 61.0 °F 81% 30.00 in 10.0 mi Calm Calm - N/A   Clear
2:53 AM 64.9 °F - 61.0 °F 87% 29.98 in 10.0 mi Calm Calm - N/A   Clear
3:53 AM 64.0 °F - 61.0 °F 90% 29.98 in 8.0 mi Calm Calm - N/A   Clear
5:53 AM 61.0 °F - 59.0 °F 93% 29.97 in 6.0 mi Calm Calm - N/A   Clear
6:53 AM 61.0 °F - 59.0 °F 93% 30.00 in 6.0 mi Calm Calm - N/A   Clear
7:53 AM 64.0 °F - 63.0 °F 96% 30.03 in 3.0 mi Calm Calm - N/A   Partly Cloudy
8:00 AM 64.4 °F - 62.6 °F 94% 30.04 in 3.0 mi South 3.5 mph - N/A   Scattered Clouds
8:02 AM 64.4 °F - 62.6 °F 94% 30.04 in 3.0 mi Calm Calm - N/A   Mostly Cloudy
8:24 AM 66.2 °F - 64.4 °F 94% 30.05 in 2.0 mi South 4.6 mph - N/A   Mostly Cloudy
8:28 AM 66.2 °F - 64.4 °F 94% 30.04 in 1.0 mi South 3.5 mph - N/A   Overcast
8:45 AM 66.2 °F - 66.2 °F 100% 30.04 in 0.5 mi SSE 3.5 mph - N/A Fog Fog
8:53 AM 66.9 °F - 66.0 °F 97% 30.04 in 0.2 mi SSE 3.5 mph - N/A Fog Fog
9:14 AM 66.2 °F - 66.2 °F 100% 30.04 in 0.5 mi Calm Calm - N/A Fog Fog
9:26 AM 66.2 °F - 66.2 °F 100% 30.04 in 2.0 mi SSE 3.5 mph - N/A   Overcast
9:53 AM 68.0 °F - 66.9 °F 96% 30.04 in 2.0 mi South 4.6 mph - N/A   Overcast
10:03 AM 69.8 °F - 66.2 °F 88% 30.04 in 3.0 mi South 3.5 mph - N/A   Overcast
10:34 AM 73.4 °F - 68.0 °F 83% 30.04 in 5.0 mi SSE 3.5 mph - N/A   Haze
10:53 AM 73.9 °F - 68.0 °F 82% 30.04 in 6.0 mi Calm Calm - N/A   Haze
11:46 AM 77.0 °F - 66.2 °F 69% 30.03 in 7.0 mi Variable 3.5 mph - N/A   Partly Cloudy
12:53 PM 82.0 °F 83.0 °F 62.1 °F 51% 30.00 in 10.0 mi SSE 12.7 mph - N/A   Clear
1:53 PM 84.0 °F 84.9 °F 63.0 °F 49% 29.98 in 10.0 mi SE 10.4 mph - N/A   Scattered Clouds
2:53 PM 84.0 °F 84.5 °F 62.1 °F 47% 29.98 in 10.0 mi SSW 8.1 mph - 0.00 in   Mostly Cloudy
4:53 PM 82.9 °F 84.0 °F 63.0 °F 51% 29.94 in 10.0 mi South 9.2 mph - N/A   Partly Cloudy
5:53 PM 82.0 °F 83.1 °F 63.0 °F 52% 29.93 in 10.0 mi SW 9.2 mph - N/A   Clear
6:53 PM 82.0 °F 83.8 °F 64.9 °F 56% 29.93 in 10.0 mi South 8.1 mph - N/A   Clear
7:53 PM 80.1 °F 81.7 °F 64.0 °F 58% 29.94 in 10.0 mi South 6.9 mph - N/A   Partly Cloudy
8:53 PM 73.9 °F - 63.0 °F 68% 29.94 in 10.0 mi SSE 5.8 mph - N/A   Clear
9:53 PM 72.0 °F - 62.1 °F 71% 29.96 in 10.0 mi Calm Calm - N/A   Clear
10:53 PM 69.1 °F - 62.1 °F 78% 29.95 in 10.0 mi Calm Calm - N/A   Clear
11:53 PM 66.0 °F - 61.0 °F 84% 29.94 in 10.0 mi SSE 5.8 mph - N/A   Clear